CW6407 Weather Reports


time (UTC)temp
C
wind
direction
speed
KPH
gust
KPH
rain 1hr
cm
rain 24hr
cm
rain mn
cm
humidity
%
barometer
mb
20260505173837 17 203 25.7 32.2 0.46 0.46 0.46 79 1004.8
20260505172837 18 270 4.8 9.7 0.36 0.36 0.36 77 1004.6
20260505171855 18 225 3.2 6.4 0.03 0.03 0.03 74 1004.5
20260505170817 18 270 6.4 9.7 0.00 0.00 0.00 72 1004.3
20260505165837 18 0 3.2 6.4 0.00 0.00 0.00 71 1004.4
20260505164837 19 338 3.2 6.4 0.00 0.00 0.00 70 1004.5
20260505163817 19 338 3.2 8.0 0.00 0.00 0.00 69 1004.5
20260505162817 19 338 6.4 9.7 0.00 0.00 0.00 69 1004.8
20260505161817 19 338 11.3 20.9 0.00 0.00 0.00 69 1004.8
20260505160817 19 0 9.7 17.7 0.00 0.00 0.00 68 1004.7
20260505152816 20 0 8.0 16.1 0.00 0.00 0.00 66 1004.9
20260505151816 20 0 8.0 14.5 0.00 0.00 0.00 65 1004.9
20260505150817 20 0 11.3 16.1 0.00 0.00 0.00 63 1005.1
20260505124816 24 0.0 1.6 0.00 0.00 0.00 43 1005.7
20260505123816 24 248 6.4 9.7 0.00 0.00 0.00 43 1006.0
20260505122816 24 270 4.8 9.7 0.00 0.00 0.00 44 1006.1
20260505121816 24 135 1.6 3.2 0.00 0.00 0.00 43 1006.1
20260505120816 23 135 3.2 6.4 0.00 0.00 0.00 44 1006.1
20260505115816 23 180 3.2 14.5 0.00 0.00 0.00 44 1006.3
20260505114816 24 248 4.8 9.7 0.00 0.00 0.00 47 1006.3
20260505113816 23 45 6.4 8.0 0.00 0.00 0.00 48 1006.5
20260505112816 23 315 1.6 6.4 0.00 0.00 0.00 49 1006.6
20260505111816 23 338 4.8 9.7 0.00 0.00 0.00 48 1006.6
20260505110816 24 293 4.8 9.7 0.00 0.00 0.00 47 1006.6
20260505101816 23 203 1.6 6.4 0.00 0.00 0.00 51 1007.1
20260505100836 23 203 4.8 8.0 0.00 0.00 0.00 51 1007.1
20260505095816 22 270 3.2 4.8 0.00 0.00 0.00 52 1007.2
20260505094816 22 270 3.2 6.4 0.00 0.00 0.00 53 1007.2
20260505093816 22 270 1.6 4.8 0.00 0.00 0.00 55 1007.6
20260505092816 22 270 1.6 4.8 0.00 0.00 0.00 56 1007.8
20260505091839 22 270 1.6 4.8 0.00 0.00 0.00 57 1007.8
20260505090816 21 225 1.6 3.2 0.00 0.00 0.00 59 1007.9
20260505085816 21 113 1.6 3.2 0.00 0.00 0.00 59 1008.0
20260505084816 21 90 3.2 6.4 0.00 0.00 0.00 60 1008.2
20260505083827 20 315 4.8 6.4 0.00 0.00 0.00 59 1008.1
20260505082815 20 23 1.6 3.2 0.00 0.00 0.00 61 1008.3
20260505081816 20 0.0 1.6 0.00 0.00 0.00 64 1008.4
20260505080816 20 0.0 1.6 0.00 0.00 0.00 63 1008.3
20260505075835 20 293 3.2 6.4 0.00 0.00 0.00 63 1008.3
20260505074816 20 0.0 1.6 0.00 0.00 0.00 63 1008.4
20260505073835 20 270 1.6 3.2 0.00 0.00 0.00 63 1008.5
20260505072816 19 270 6.4 11.3 0.00 0.00 0.00 65 1008.7
20260505071815 18 0.0 1.6 0.00 0.00 0.00 67 1008.7
20260505070815 18 0.0 0.0 0.00 0.00 0.00 66 1008.7
20260505065835 17 0.0 1.6 0.00 0.00 0.00 66 1008.7
20260505064816 17 0.0 0.0 0.00 0.00 0.00 68 1008.8
20260505063816 17 68 4.8 9.7 0.00 0.00 0.00 70 1008.9
20260505062815 16 338 1.6 3.2 0.00 0.00 0.00 73 1008.9
20260505061835 16 338 3.2 4.8 0.00 0.00 0.00 74 1009.0
20260505060815 15 45 1.6 4.8 0.00 0.00 0.00 74 1009.0
20260505055835 15 45 1.6 3.2 0.00 0.00 0.00 74 1009.0
20260505054855 15 45 4.8 6.4 0.00 0.00 0.00 75 1009.1
20260505053815 15 45 4.8 8.0 0.00 0.00 0.00 76 1009.2
20260505052935 15 0.0 1.6 0.00 0.00 0.00 77 1009.3
20260505051815 14 0.0 1.6 0.00 0.00 0.00 80 1009.3
20260505050815 13 0.0 0.0 0.00 0.00 0.00 80 1009.0
20260505040817 13 0.0 0.0 0.00 0.00 0.00 79 1009.0
20260505035837 13 293 1.6 4.8 0.00 0.00 0.00 79 1009.0
20260505034817 13 293 3.2 4.8 0.00 0.00 0.00 78 1009.0
20260505033817 13 293 6.4 11.3 0.00 0.00 0.00 78 1008.9
20260505032817 13 315 3.2 6.4 0.00 0.00 0.00 78 1009.2
20260505031817 13 315 3.2 6.4 0.00 0.00 0.00 77 1009.2
20260505030817 13 338 1.6 3.2 0.00 0.00 0.00 77 1009.3
20260505025837 13 0.0 0.0 0.00 0.00 0.00 77 1009.5
20260505024817 13 338 3.2 4.8 0.00 0.00 0.00 76 1009.3
20260505023817 13 0.0 0.0 0.00 0.00 0.00 76 1009.6
20260505022837 13 338 1.6 3.2 0.00 0.00 0.00 76 1009.7
20260505021837 14 0.0 0.0 0.00 0.00 0.00 76 1009.8
20260505020817 14 0.0 0.0 0.00 0.00 0.00 76 1009.7
20260505015837 14 338 3.2 4.8 0.00 0.00 0.00 75 1009.8
20260505014817 14 315 1.6 4.8 0.00 0.00 0.00 74 1009.8
20260505013817 14 315 1.6 3.2 0.00 0.00 0.00 74 1009.7
20260505012837 14 315 3.2 4.8 0.00 0.00 0.00 73 1009.8
20260505011837 14 315 1.6 4.8 0.00 0.00 0.00 73 1009.8
20260505010817 15 315 1.6 3.2 0.00 0.00 0.00 73 1010.1
20260505005817 15 0.0 1.6 0.00 0.00 0.00 72 1010.2
20260505004816 15 0.0 0.0 0.00 0.00 0.00 72 1010.2
20260505003817 15 0.0 1.6 0.00 0.00 0.00 71 1010.4
20260505002817 15 0.0 0.0 0.00 0.00 0.00 71 1010.4
20260505001816 15 0.0 1.6 0.00 0.00 0.00 71 1010.4
20260505000817 15 248 1.6 3.2 0.00 0.00 0.00 71 1010.4
20260504235817 15 0.0 1.6 0.00 0.00 0.00 72 1010.6
20260504234816 15 0.0 1.6 0.00 0.00 0.00 72 1010.6
20260504233817 15 0.0 0.0 0.00 0.00 0.00 72 1010.6
20260504232816 15 248 3.2 4.8 0.00 0.00 0.00 70 1010.7
20260504231817 15 248 4.8 8.0 0.00 0.00 0.00 71 1010.7
20260504230816 15 0.0 0.0 0.00 0.00 0.00 71 1011.0
20260504225816 15 0.0 0.0 0.00 0.00 0.00 70 1011.2
20260504224816 15 0.0 0.0 0.00 0.00 0.00 70 1011.1
20260504223816 15 0.0 0.0 0.00 0.00 0.00 70 1011.1
20260504222817 16 0.0 1.6 0.00 0.00 0.00 69 1011.2
20260504221816 16 0.0 0.0 0.00 0.00 0.00 68 1011.1
20260504220816 16 0.0 0.0 0.00 0.00 0.00 66 1011.3
20260504215817 16 0.0 0.0 0.00 0.00 0.00 66 1011.3
20260504214817 16 0.0 0.0 0.00 0.00 0.00 66 1011.3
20260504213817 16 0.0 0.0 0.00 0.00 0.00 65 1011.4
20260504212817 16 0.0 0.0 0.00 0.00 0.00 65 1011.4
20260504211815 16 0.0 0.0 0.00 0.00 0.00 65 1011.4
20260504210817 17 0.0 0.0 0.00 0.00 0.00 64 1011.5
20260504205817 17 0.0 0.0 0.00 0.00 0.00 63 1011.5
20260504204817 17 0.0 0.0 0.00 0.00 0.00 63 1011.4
20260504203817 17 0.0 0.0 0.00 0.00 0.00 62 1011.5
20260504202837 17 0.0 0.0 0.00 0.00 0.00 59 1011.4
20260504201817 17 0.0 0.0 0.00 0.00 0.00 58 1011.3
20260504200817 17 248 1.6 4.8 0.00 0.00 0.00 58 1011.4
20260504195817 18 248 3.2 4.8 0.00 0.00 0.00 57 1011.4
20260504194817 18 248 4.8 4.8 0.00 0.00 0.00 56 1011.4
20260504193817 18 0.0 1.6 0.00 0.00 0.00 57 1011.3
20260504192837 18 0.0 0.0 0.00 0.00 0.00 57 1011.3
20260504191817 18 0.0 0.0 0.00 0.00 0.00 56 1011.2
20260504190837 19 0.0 0.0 0.00 0.00 0.00 56 1011.5
20260504185837 19 0.0 0.0 0.00 0.00 0.00 55 1011.4
20260504184816 20 0.0 0.0 0.00 0.00 0.00 51 1011.3
20260504183816 20 248 4.8 6.4 0.00 0.00 0.00 51 1011.2
20260504182816 20 248 3.2 4.8 0.00 0.00 0.00 51 1011.4
20260504181816 20 248 3.2 3.2 0.00 0.00 0.00 50 1011.3
20260504180816 20 0.0 0.0 0.00 0.00 0.00 49 1011.5
20260504175817 20 248 1.6 3.2 0.00 0.00 0.00 47 1011.4
20260504174817 21 248 1.6 3.2 0.00 0.00 0.00 47 1011.4